[vc_row][vc_column width=”2/3″]

Nesenie raksti

Ziņas

[/vc_column][vc_column width=”1/3″ el_class=”sticky-column”]

Par Gliding.lv

[vc_column_text]Gliding.lv ir interneta vietne par planieriem un planierismu. Šeit būs atrodama informācija par iespējām pamēģināt, iesaistīties un organizēt planierisma aktivitātes. Izmanto Gliding.lv forumu, ja Tev ir kāda tēma diskusijai vai jautājums. Gliding.lv merķis ir informēt un apvienot planierisma interesentus, nodrošinot un apmainoties ar aktuālāko un arī bijušo. Lidojam![/vc_column_text][vc_column_text]
[/vc_column_text]

METAR

EVRA 162020Z 22007KT 9999 -SHRA FEW029CB BKN045 08/06 Q1008 R18/290195 NOSIG

EVLA 162020Z AUTO 27020KT 9999 FEW024/// BKN027/// BKN032/// 11/07 Q1010

EVVA 162020Z AUTO 30012KT 9999 FEW025 SCT055 09/07 Q1008

Nesenie raksti

[/vc_column][/vc_row]

Pāriet uz rīkjoslu